Regional Weather Roundup
Issued by NWS Charleston, SC

Current Version | Previous Version | Graphics & Text | Print | Product List | Glossary On
Versions: 1 2 3 4 5 6 7 8 9 10 11 12 13 14 15 16 17 18 19 20 21 22 23 24 25 26 27 28 29 30 31 32 33 34 35 36 37 38 39 40 41 42 43 44 45 46 47 48 49 50
000
ASUS42 KCHS 061112
RWRCHS

REGIONAL WEATHER ROUNDUP
NATIONAL WEATHER SERVICE CHARLESTON SC
700 AM EDT WED MAY 06 2015

NOTE: "FAIR" INDICATES FEW OR NO CLOUDS BELOW 12,000 FEET WITH NO
SIGNIFICANT WEATHER AND/OR OBSTRUCTIONS TO VISIBILITY.

NOT ALL STATIONS ARE QUALITY CONTROLLED BY THE NATIONAL
WEATHER SERVICE. USE DATA WITH CAUTION...ESPECIALLY
DEWPOINT OBSERVATIONS.

SCZ027-030-031-034>040-042>050-061200-
...SOUTHEAST SOUTH CAROLINA...

CITY           SKY/WX    TMP DP  RH WIND       PRES   REMARKS
N CHARLESTON   MOCLDY    62  60  93 NE7       30.18R
WATERFRONT PRK   N/A     64 N/A N/A N10         N/A
MOUNT PLEASANT FAIR      63  63 100 MISG      30.17S
PINOPOLIS      NOT AVBL
MONCKS CORNER  FAIR      63  59  88 N5        30.19R
SUMMERVILLE    FAIR      55  55 100 N3        30.19S
BEAUFORT MCAS  PTCLDY    62  60  93 N7        30.16S
BEAUFORT ARPT  FAIR      63  63 100 CALM      30.16S
HILTON HEAD IS PTCLDY    66  64  94 N6        30.16S
WALTERBORO     MOSUNNY   57  57 100 CALM      30.19R
ALLENDALE      FAIR      59  59 100 CALM      30.18S

...SOUTHERN MIDLANDS AND PEE DEE...

CITY           SKY/WX    TMP DP  RH WIND       PRES   REMARKS
GEORGETOWN     NOT AVBL
KINGSTREE      NOT AVBL
ORANGEBURG     MOCLDY    56  53  90 CALM      30.21R
BARNWELL       FAIR      59  57  94 N5        30.20S
AIKEN          FAIR      54  50  87 CALM      30.25R
MANNING        FAIR      54  50  87 N3        30.21R
COLUMBIA       MOCLDY    54  50  86 CALM      30.22R
SUMTER         PTCLDY    56  53  91 NE6       30.21R
FLORENCE       PTCLDY    57  54  89 NE3       30.22S
MYRTLE BEACH   MOCLDY    61  55  82 N6        30.22S
N MYRTLE BEACH MOCLDY    60  57  89 N5        30.20S

$$

GAZ063-065-086>088-099>101-113>116-118-119-134>141-150-061200-
...SOUTHEAST GEORGIA...

CITY           SKY/WX    TMP DP  RH WIND       PRES   REMARKS
SAVANNAH ARPT  MOCLDY    62  59  90 NE8       30.16S
HUNTER AAF     CLEAR     64  62  95 VRB3      30.13R
FORT STEWART   PTCLDY    61  59  94 NE6       30.13R
STATESBORO       N/A     59  59 100 CALM      30.18R
SYLVANIA       PTSUNNY   59  59 100 NE5       30.19R
CLAXTON        FAIR      55  55 100 CALM      30.16S

...CSRA...CENTRAL AND FAR SOUTHEAST GEORGIA...

CITY           SKY/WX    TMP DP  RH WIND       PRES   REMARKS
THOMSON        CLEAR     50  50 100 CALM      30.26S
AUGUSTA-BUSH   PTCLDY    51  50  96 CALM      30.20S
AUGUSTA-DANIEL PTCLDY    60  54  80 N6        30.21S
SWAINSBORO     FAIR      61  61 100 NE5       30.19S
VIDALIA        MOCLDY    59  59 100 NE3       30.17S
EASTMAN        FAIR      56  56 100 CALM      30.21R
HAZLEHURST     FAIR      62  62 100 N3        30.15R
ALMA           CLEAR     61  59  93 CALM      30.14S
WAYCROSS         N/A     63  63  99 CALM      30.13S FOG
JESUP          FAIR      64  63  94 NE5       30.14S
BAXLEY         FAIR      63  61  94 NE3       30.14S
BRUNSWICK      PTCLDY    64  63  94 N6        30.13R
SAINT SIMONS   PTCLDY    68  65  90 NW5       30.11F

$$

SCZ027-028-034-036>038-045-046-048>050-GAZ119-141-061200-
...LAKE AND SUPPLEMENTAL COASTAL OBSERVATIONS...

STATION/POSITION TIME  TEMP    WIND        PRES    WAVE   SWELL
                       AIR SEA DIR/SP/G            HT/PER HT/PER/DIR
                 (UTC) (F)     (DEG/KT/KT) (MB)    (FT/S) (FT/S/D)
UPR LAKE MARION  NOT AVBL
WINYAH BAY       NOT AVBL
LAKE MURRAY      1000   60      CALM  /  2 1022.7S
ACE BASIN NERRS  NOT AVBL
FORT PULASKI     1000          360/  6/  7   N/A
SAPELO ISLAND    1000   67      20/  5     1020.0S

$$

ANZ835-935-AMZ111-154-330-350-352-354-370-450-454-472-061200-
...C-MAN AND BUOY OBSERVATIONS...

STATION/POSITION TIME  TEMP    WIND        PRES    WAVE   SWELL
                       AIR SEA DIR/SP/G            HT/PER HT/PER/DIR
                 (UTC) (F)     (DEG/KT/KT) (MB)    (FT/S) (FT/S/D)
BUOY 41004       1050   73 73   60/ 16/ 19 1020.2R   5/ 8   3/ 8
BUOY 41008       1050   70 70   40/ 16/ 17 1019.7F   5/ 7   3/120/ 7
FOLLY BEACH CMAN 1100   68      30/ 12/ 15 1021.4R
CAPERS NEARSHORE 1008   69      40/ 16/ 21 1021.3F
FRIPP NEARSHORE  1000   69      40/ 16/ 17 1020.2F


STATION/POSITION TIME  TEMP    WIND        PRES    WAVE   SWELL
                       AIR SEA DIR/SP/G            HT/PER HT/PER/DIR
                 (UTC) (F)     (DEG/KT/KT) (MB)    (FT/S) (FT/S/D)
5E ST. MARYS GA  1021      71                N/A     5/ 8
FRYING PAN BUOY  1050   73 71   80/ 14/ 16 1022.8S   5/ 7   3/150/ 7
BUOY 41025       1050   70 75  110/  6/  8 1024.3S   3/ 8   3/ 40/ 8
CAPE LOOKOUT NC  1000   67      50/  6/  6 1023.3F
BUOY 41002       1050   68 71   90/ 21/ 27 1021.0S   7/ 7
BUOY 41010       1020   71 78   40/ 16/ 19 1015.6R
ST AUGUSTINE FL  1100   71 72  360/ 19/ 20 1019.2R


$$



USA.gov is the U.S. government's official web portal to all federal, state and local government web resources and services.